Location: Windsor
(43.2292°N, 89.3015°W)
Time: 16:43:01
(UTC+00:00)

DIWATA 2B (PO-101) - Pass Details

Date: 03 July 2022
Orbit: 583 x 599 km, 98.0° (Epoch: 18 August)

Event Time Altitude Azimuth Distance (km) Brightness Sun altitude
Exits shadow 06:45:19 11° 107° (ESE) 1,859 ? -23.1°
Maximum altitude 06:48:00 19° 65° (ENE) 1,451 ? -23.0°
Drops below altitude 10° 06:50:58 10° 20° (NNE) 1,949 ? -22.8°
Sets 06:53:38 0° 3° (N) 2,856 ? -22.7°
